Location: Bear Valley
(38.4650°N, 120.0390°W)
Time: 10:53:02
(UTC-07:00)

OTV 5 (USA 277) - Visible Passes

Search period start: 23 June 2018 00:00
Search period end: 03 July 2018 00:00
Orbit: 313 x 320 km, 54.5° (Epoch: 21 June)

Date Brightness Start Highest point End Pass type
(mag) Time Alt. Az. Time Alt. Az. Time Alt. Az.
26 Jun ? 23:27:27 10° NNE 23:27:38 10° NNE 23:27:38 10° NNE visible
27 Jun ? 23:40:21 10° NNW 23:41:05 14° N 23:41:05 14° N visible
28 Jun ? 23:54:20 10° NW 23:54:35 12° NW 23:54:35 12° NW visible
29 Jun ? 22:35:22 10° N 22:36:54 14° NNE 22:37:18 14° NE visible
30 Jun ? 22:49:04 10° NNW 22:50:54 27° N 22:50:54 27° N visible
01 Jul ? 23:03:17 10° NW 23:04:34 25° NW 23:04:34 25° NW visible
02 Jul ? 21:43:55 10° NNW 21:45:59 20° NE 21:47:25 14° ENE visible
02 Jul ? 23:18:03 10° WNW 23:18:16 11° WNW 23:18:16 11° WNW visible
